JIA5622 KATL-KMIA

Flight info

Callsign JIA5622
Flight time 1h 27m
Altitude 35000
Route BANNG3 LUCKK HONID FROGZ5
Aircraft CRJ9/M-SDFGIRWY/S

Departure

Time 2026-05-03 22:19
Airport Hartsfield Jackson Atlanta International Airport (KATL)

Arrival

Time 2026-05-03 23:46
Airport Miami International Airport (KMIA)
Time Latitude Longitude Altitude Speed Heading
2026-05-03 21:50 33.64187 -84.44186 1004 ft 0 kts 270°
2026-05-03 22:06 33.64188 -84.44157 1004 ft 4 kts 268°
2026-05-03 22:06 33.64190 -84.44130 1004 ft 4 kts 244°
2026-05-03 22:06 33.64208 -84.44116 1004 ft 4 kts 187°
2026-05-03 22:06 33.64223 -84.44115 1004 ft 1 kts 180°
2026-05-03 22:08 33.64218 -84.44115 1004 ft 2 kts 179°
2026-05-03 22:09 33.64201 -84.44115 1004 ft 3 kts 180°
2026-05-03 22:09 33.64172 -84.44115 1004 ft 5 kts 180°
2026-05-03 22:09 33.64133 -84.44115 1004 ft 5 kts 180°
2026-05-03 22:10 33.64019 -84.44115 1004 ft 13 kts 180°
2026-05-03 22:10 33.63932 -84.44114 1004 ft 12 kts 180°
2026-05-03 22:10 33.63847 -84.44115 1004 ft 12 kts 180°
2026-05-03 22:10 33.63765 -84.44115 1004 ft 12 kts 180°
2026-05-03 22:11 33.63686 -84.44108 1005 ft 11 kts 151°
2026-05-03 22:11 33.63664 -84.44003 1005 ft 15 kts 90°
2026-05-03 22:11 33.63664 -84.43883 1004 ft 14 kts 90°
2026-05-03 22:11 33.63663 -84.43764 1004 ft 14 kts 90°
2026-05-03 22:12 33.63664 -84.43638 1004 ft 16 kts 90°
2026-05-03 22:12 33.63664 -84.43495 1004 ft 18 kts 90°
2026-05-03 22:12 33.63664 -84.43338 1004 ft 19 kts 90°
2026-05-03 22:12 33.63664 -84.43185 1004 ft 18 kts 90°
2026-05-03 22:13 33.63664 -84.43037 1004 ft 18 kts 90°
2026-05-03 22:13 33.63665 -84.42894 1004 ft 17 kts 91°
2026-05-03 22:13 33.63660 -84.42754 1005 ft 16 kts 97°
2026-05-03 22:13 33.63655 -84.42609 1005 ft 18 kts 90°
2026-05-03 22:14 33.63655 -84.42446 1005 ft 21 kts 90°
2026-05-03 22:14 33.63655 -84.42266 1005 ft 22 kts 90°
2026-05-03 22:14 33.63655 -84.42070 1005 ft 24 kts 90°
2026-05-03 22:14 33.63655 -84.41860 1004 ft 25 kts 89°
2026-05-03 22:15 33.63656 -84.41651 1004 ft 25 kts 90°
2026-05-03 22:15 33.63655 -84.41471 1004 ft 24 kts 90°
2026-05-03 22:15 33.63655 -84.41273 1004 ft 23 kts 90°
2026-05-03 22:15 33.63655 -84.41088 1004 ft 19 kts 90°
2026-05-03 22:16 33.63655 -84.40955 1004 ft 12 kts 95°
2026-05-03 22:16 33.63605 -84.40909 1004 ft 8 kts 175°
2026-05-03 22:16 33.63578 -84.40908 1004 ft 0 kts 179°
2026-05-03 22:16 33.63574 -84.40908 1004 ft 2 kts 180°
2026-05-03 22:17 33.63543 -84.40908 1005 ft 7 kts 180°
2026-05-03 22:17 33.63495 -84.40909 1005 ft 7 kts 180°
2026-05-03 22:17 33.63473 -84.40928 1005 ft 3 kts 261°
2026-05-03 22:17 33.63473 -84.40934 1005 ft 0 kts 266°
2026-05-03 22:18 33.63472 -84.40949 1005 ft 11 kts 268°
2026-05-03 22:18 33.63472 -84.41270 1004 ft 66 kts 270°
2026-05-03 22:18 33.63471 -84.42015 1005 ft 111 kts 270°
2026-05-03 22:19 33.63471 -84.43106 1003 ft 148 kts 270°
2026-05-03 22:19 33.63476 -84.44417 1211 ft 160 kts 271°
2026-05-03 22:19 33.63467 -84.45737 1696 ft 158 kts 272°
2026-05-03 22:19 33.63462 -84.47072 2114 ft 162 kts 271°
2026-05-03 22:20 33.63455 -84.48429 2625 ft 168 kts 271°
2026-05-03 22:20 33.63459 -84.49955 2828 ft 197 kts 272°
2026-05-03 22:20 33.63468 -84.51647 3373 ft 209 kts 272°
2026-05-03 22:20 33.63479 -84.53498 3776 ft 231 kts 271°
2026-05-03 22:21 33.63488 -84.55492 4310 ft 246 kts 271°
2026-05-03 22:21 33.63491 -84.57602 4944 ft 257 kts 271°
2026-05-03 22:21 33.63495 -84.59763 5697 ft 261 kts 271°
2026-05-03 22:21 33.63491 -84.61959 6534 ft 263 kts 271°
2026-05-03 22:22 33.63272 -84.64165 7170 ft 275 kts 249°
2026-05-03 22:22 33.62189 -84.66053 7988 ft 278 kts 230°
2026-05-03 22:22 33.60788 -84.67673 8744 ft 284 kts 219°
2026-05-03 22:22 33.59150 -84.68965 9517 ft 288 kts 212°
2026-05-03 22:23 33.57242 -84.69754 10217 ft 299 kts 186°
2026-05-03 22:23 33.55079 -84.69566 10633 ft 317 kts 173°
2026-05-03 22:23 33.52859 -84.69063 11030 ft 332 kts 170°
2026-05-03 22:23 33.50560 -84.68492 11553 ft 341 kts 170°
2026-05-03 22:24 33.48254 -84.67942 12265 ft 343 kts 172°
2026-05-03 22:24 33.45889 -84.67453 12990 ft 346 kts 173°
2026-05-03 22:24 33.43497 -84.67007 13712 ft 349 kts 174°
2026-05-03 22:24 33.41113 -84.66405 14359 ft 354 kts 164°
2026-05-03 22:25 33.38808 -84.65295 14976 ft 359 kts 158°
2026-05-03 22:25 33.36543 -84.63992 15595 ft 363 kts 156°
2026-05-03 22:25 33.34266 -84.62643 16211 ft 366 kts 156°
2026-05-03 22:25 33.31968 -84.61321 16804 ft 368 kts 158°
2026-05-03 22:26 33.29627 -84.60049 17399 ft 371 kts 159°
2026-05-03 22:26 33.27258 -84.58792 17983 ft 374 kts 159°
2026-05-03 22:26 33.24877 -84.57517 18539 ft 377 kts 159°
2026-05-03 22:26 33.22476 -84.56227 19027 ft 380 kts 159°
2026-05-03 22:27 33.20061 -84.54928 19515 ft 382 kts 159°
2026-05-03 22:27 33.17625 -84.53619 19980 ft 385 kts 159°
2026-05-03 22:27 33.15174 -84.52304 20447 ft 387 kts 159°
2026-05-03 22:27 33.12707 -84.50979 20902 ft 390 kts 159°
2026-05-03 22:28 33.10259 -84.49666 21333 ft 393 kts 159°
2026-05-03 22:28 33.07757 -84.48324 21777 ft 395 kts 159°
2026-05-03 22:28 33.05239 -84.46977 22200 ft 397 kts 159°
2026-05-03 22:28 33.02709 -84.45622 22617 ft 400 kts 159°
2026-05-03 22:29 33.00171 -84.44264 23062 ft 401 kts 160°
2026-05-03 22:29 32.97860 -84.43026 23420 ft 403 kts 160°
2026-05-03 22:29 32.95200 -84.42045 23740 ft 399 kts 176°
2026-05-03 22:29 32.92408 -84.41823 23764 ft 406 kts 184°
2026-05-03 22:30 32.89542 -84.41873 23792 ft 416 kts 185°
2026-05-03 22:30 32.86614 -84.41950 23892 ft 424 kts 185°
2026-05-03 22:30 32.83658 -84.41961 24241 ft 425 kts 183°
2026-05-03 22:30 32.80688 -84.41889 24561 ft 427 kts 183°
2026-05-03 22:31 32.77746 -84.41821 24865 ft 428 kts 183°
2026-05-03 22:31 32.74766 -84.41759 25227 ft 428 kts 184°
2026-05-03 22:31 32.71785 -84.41690 25554 ft 428 kts 184°
2026-05-03 22:31 32.68800 -84.41637 25847 ft 429 kts 184°
2026-05-03 22:32 32.65808 -84.41578 26133 ft 431 kts 184°
2026-05-03 22:32 32.62806 -84.41517 26410 ft 432 kts 184°
2026-05-03 22:32 32.59792 -84.41458 26679 ft 434 kts 184°
2026-05-03 22:32 32.56769 -84.41397 26937 ft 435 kts 185°
2026-05-03 22:33 32.53736 -84.41337 27205 ft 436 kts 185°
2026-05-03 22:33 32.50699 -84.41275 27443 ft 437 kts 185°
2026-05-03 22:33 32.47656 -84.41212 27704 ft 437 kts 185°
2026-05-03 22:33 32.44610 -84.41147 27971 ft 438 kts 185°
2026-05-03 22:34 32.41559 -84.41091 28194 ft 439 kts 185°
2026-05-03 22:34 32.38498 -84.41030 28451 ft 439 kts 185°
2026-05-03 22:34 32.35449 -84.40965 28733 ft 439 kts 186°
2026-05-03 22:34 32.32393 -84.40909 28960 ft 440 kts 186°
2026-05-03 22:35 32.29326 -84.40859 29145 ft 441 kts 186°
2026-05-03 22:35 32.26266 -84.40782 29479 ft 438 kts 186°
2026-05-03 22:35 32.23226 -84.40714 29803 ft 437 kts 186°
2026-05-03 22:35 32.20189 -84.40656 30047 ft 436 kts 186°
2026-05-03 22:36 32.17151 -84.40598 30229 ft 437 kts 186°
2026-05-03 22:36 32.14107 -84.40536 30397 ft 438 kts 186°
2026-05-03 22:36 32.11057 -84.40477 30554 ft 438 kts 186°
2026-05-03 22:36 32.08045 -84.40417 30702 ft 439 kts 186°
2026-05-03 22:37 32.04988 -84.40355 30851 ft 440 kts 186°
2026-05-03 22:37 32.01889 -84.40294 31055 ft 439 kts 187°
2026-05-03 22:37 31.99173 -84.40237 31289 ft 437 kts 187°
2026-05-03 22:37 31.96132 -84.40177 31434 ft 438 kts 187°
2026-05-03 22:38 31.93078 -84.40112 31599 ft 437 kts 187°
2026-05-03 22:38 31.90039 -84.40046 31750 ft 437 kts 187°
2026-05-03 22:38 31.86992 -84.39989 31972 ft 434 kts 187°
2026-05-03 22:38 31.84006 -84.39926 32517 ft 426 kts 187°
2026-05-03 22:39 31.81055 -84.39862 32860 ft 422 kts 188°
2026-05-03 22:39 31.78122 -84.39805 33057 ft 420 kts 188°
2026-05-03 22:39 31.75198 -84.39751 33246 ft 420 kts 188°
2026-05-03 22:39 31.72278 -84.39693 33421 ft 419 kts 188°
2026-05-03 22:40 31.69368 -84.39635 33598 ft 418 kts 188°
2026-05-03 22:40 31.66461 -84.39542 33731 ft 421 kts 185°
2026-05-03 22:40 31.63532 -84.39133 33912 ft 426 kts 181°
2026-05-03 22:40 31.60606 -84.38531 34078 ft 428 kts 179°
2026-05-03 22:41 31.57684 -84.37805 34219 ft 430 kts 177°
2026-05-03 22:41 31.54762 -84.37024 34340 ft 430 kts 177°
2026-05-03 22:41 31.51884 -84.36253 34457 ft 429 kts 177°
2026-05-03 22:42 31.46045 -84.34729 34676 ft 429 kts 178°
2026-05-03 22:42 31.43127 -84.33991 34796 ft 428 kts 178°
2026-05-03 22:42 31.40208 -84.33252 34878 ft 429 kts 178°
2026-05-03 22:43 31.34346 -84.31775 34947 ft 432 kts 178°
2026-05-03 22:43 31.29446 -84.30540 35047 ft 434 kts 178°
2026-05-03 22:44 31.22539 -84.28801 35085 ft 438 kts 178°
2026-05-03 22:44 31.17544 -84.27545 35107 ft 438 kts 178°
2026-05-03 22:45 31.11586 -84.26048 35078 ft 438 kts 179°
2026-05-03 22:45 31.05636 -84.24558 35105 ft 437 kts 179°
2026-05-03 22:46 30.99690 -84.23069 35115 ft 437 kts 179°
2026-05-03 22:46 30.94036 -84.21654 35119 ft 437 kts 179°
2026-05-03 22:47 30.88095 -84.20167 35128 ft 437 kts 179°
2026-05-03 22:47 30.82154 -84.18698 35121 ft 436 kts 179°
2026-05-03 22:48 30.76247 -84.17223 35124 ft 437 kts 178°
2026-05-03 22:48 30.70297 -84.15738 35125 ft 437 kts 179°
2026-05-03 22:49 30.64340 -84.14257 35121 ft 437 kts 179°
2026-05-03 22:49 30.58383 -84.12776 35119 ft 437 kts 179°
2026-05-03 22:50 30.52428 -84.11302 35115 ft 438 kts 179°
2026-05-03 22:50 30.46457 -84.09824 35116 ft 439 kts 179°
2026-05-03 22:51 30.40466 -84.08315 35112 ft 445 kts 175°
2026-05-03 22:51 30.37502 -84.07112 35117 ft 456 kts 168°
2026-05-03 22:51 30.34570 -84.05668 35119 ft 459 kts 167°
2026-05-03 22:52 30.28845 -84.02173 35118 ft 471 kts 159°
2026-05-03 22:52 30.23551 -83.98470 35088 ft 471 kts 160°
2026-05-03 22:53 30.17890 -83.94689 35103 ft 470 kts 161°
2026-05-03 22:53 30.12208 -83.90928 35089 ft 471 kts 161°
2026-05-03 22:54 30.06510 -83.87162 35101 ft 471 kts 161°
2026-05-03 22:54 30.00821 -83.83406 35102 ft 471 kts 161°
2026-05-03 22:55 29.95423 -83.79848 35066 ft 470 kts 161°
2026-05-03 22:55 29.89760 -83.76122 35088 ft 468 kts 162°
2026-05-03 22:56 29.84139 -83.72426 35097 ft 467 kts 162°
2026-05-03 22:56 29.78497 -83.68722 35096 ft 467 kts 162°
2026-05-03 22:57 29.72849 -83.65019 35099 ft 466 kts 162°
2026-05-03 22:57 29.67218 -83.61330 35045 ft 466 kts 162°
2026-05-03 22:58 29.61591 -83.57652 35087 ft 464 kts 162°
2026-05-03 22:58 29.55969 -83.53981 35095 ft 464 kts 162°
2026-05-03 22:59 29.50357 -83.50317 35097 ft 463 kts 163°
2026-05-03 22:59 29.44733 -83.46656 35101 ft 466 kts 163°
2026-05-03 23:00 29.39119 -83.43001 35095 ft 468 kts 163°
2026-05-03 23:00 29.33438 -83.39310 35084 ft 469 kts 163°
2026-05-03 23:01 29.27751 -83.35618 35095 ft 470 kts 163°
2026-05-03 23:01 29.21990 -83.32281 35095 ft 462 kts 169°
2026-05-03 23:02 29.16084 -83.29424 35089 ft 461 kts 170°
2026-05-03 23:02 29.10156 -83.26465 35087 ft 464 kts 169°
2026-05-03 23:03 29.04235 -83.23456 35063 ft 465 kts 169°
2026-05-03 23:03 28.98706 -83.20662 35078 ft 465 kts 169°
2026-05-03 23:04 28.92781 -83.17671 35086 ft 466 kts 169°
2026-05-03 23:04 28.86847 -83.14673 35062 ft 466 kts 169°
2026-05-03 23:05 28.80907 -83.11677 35078 ft 466 kts 169°
2026-05-03 23:05 28.74974 -83.08688 35057 ft 466 kts 169°
2026-05-03 23:06 28.69032 -83.05705 35068 ft 466 kts 169°
2026-05-03 23:06 28.63128 -83.02742 35072 ft 467 kts 169°
2026-05-03 23:07 28.57506 -82.99917 35072 ft 467 kts 169°
2026-05-03 23:07 28.51553 -82.96937 35071 ft 467 kts 169°
2026-05-03 23:08 28.45596 -82.93958 35033 ft 467 kts 169°
2026-05-03 23:08 28.39661 -82.90993 35058 ft 465 kts 169°
2026-05-03 23:09 28.33735 -82.88037 35070 ft 465 kts 169°
2026-05-03 23:09 28.27820 -82.85088 35057 ft 464 kts 169°
2026-05-03 23:10 28.21900 -82.82141 35067 ft 464 kts 170°
2026-05-03 23:10 28.15985 -82.79200 35021 ft 463 kts 169°
2026-05-03 23:11 28.10086 -82.76270 35037 ft 463 kts 169°
2026-05-03 23:11 28.04220 -82.73362 35052 ft 461 kts 170°
2026-05-03 23:11 28.01239 -82.72166 35056 ft 450 kts 176°
2026-05-03 23:12 27.98541 -82.71304 35056 ft 447 kts 178°
2026-05-03 23:12 27.92529 -82.69904 35055 ft 437 kts 183°
2026-05-03 23:13 27.86528 -82.68821 35008 ft 437 kts 183°
2026-05-03 23:13 27.80524 -82.67701 35022 ft 438 kts 182°
2026-05-03 23:14 27.74513 -82.66521 35035 ft 438 kts 182°
2026-05-03 23:14 27.68491 -82.65337 35035 ft 439 kts 182°
2026-05-03 23:15 27.62472 -82.64151 35035 ft 439 kts 182°
2026-05-03 23:15 27.56484 -82.62976 35038 ft 440 kts 182°
2026-05-03 23:16 27.50449 -82.61611 35048 ft 447 kts 178°
2026-05-03 23:16 27.44417 -82.59741 35053 ft 450 kts 176°
2026-05-03 23:17 27.38384 -82.57904 35056 ft 449 kts 177°
2026-05-03 23:17 27.32333 -82.56127 35056 ft 449 kts 177°
2026-05-03 23:18 27.26286 -82.54356 35015 ft 449 kts 177°
2026-05-03 23:18 27.20242 -82.52591 35054 ft 449 kts 177°
2026-05-03 23:19 27.14221 -82.50828 35050 ft 450 kts 177°
2026-05-03 23:19 27.08163 -82.49059 35045 ft 450 kts 177°
2026-05-03 23:20 27.02097 -82.47288 35045 ft 450 kts 177°
2026-05-03 23:20 26.96331 -82.45540 34937 ft 459 kts 172°
2026-05-03 23:20 26.93367 -82.43986 34546 ft 479 kts 161°
2026-05-03 23:21 26.90469 -82.42096 34157 ft 483 kts 160°
2026-05-03 23:21 26.87585 -82.40160 33664 ft 483 kts 159°
2026-05-03 23:21 26.84791 -82.38064 33129 ft 486 kts 153°
2026-05-03 23:21 26.82188 -82.35632 32630 ft 488 kts 148°
2026-05-03 23:22 26.77187 -82.30542 31650 ft 482 kts 148°
2026-05-03 23:22 26.74673 -82.28089 31169 ft 477 kts 149°
2026-05-03 23:22 26.72145 -82.25694 30703 ft 475 kts 149°
2026-05-03 23:23 26.69630 -82.23295 30231 ft 474 kts 148°
2026-05-03 23:23 26.67127 -82.20896 29707 ft 473 kts 148°
2026-05-03 23:23 26.64625 -82.18503 29122 ft 472 kts 148°
2026-05-03 23:23 26.62128 -82.16121 28604 ft 471 kts 148°
2026-05-03 23:24 26.59677 -82.13774 28090 ft 470 kts 148°
2026-05-03 23:24 26.57166 -82.11378 27582 ft 468 kts 148°
2026-05-03 23:24 26.54726 -82.09047 27097 ft 467 kts 147°
2026-05-03 23:24 26.52264 -82.06703 26606 ft 461 kts 148°
2026-05-03 23:25 26.49871 -82.04373 26157 ft 452 kts 146°
2026-05-03 23:25 26.47565 -82.02041 25721 ft 442 kts 146°
2026-05-03 23:25 26.45302 -81.99757 25305 ft 436 kts 146°
2026-05-03 23:25 26.43290 -81.97734 24946 ft 433 kts 146°
2026-05-03 23:26 26.41060 -81.95492 24561 ft 430 kts 146°
2026-05-03 23:26 26.38847 -81.93267 24182 ft 427 kts 146°
2026-05-03 23:26 26.36648 -81.91055 23810 ft 424 kts 146°
2026-05-03 23:26 26.34459 -81.88857 23387 ft 422 kts 146°
2026-05-03 23:27 26.32285 -81.86675 22913 ft 420 kts 146°
2026-05-03 23:27 26.30123 -81.84501 22494 ft 417 kts 146°
2026-05-03 23:27 26.27971 -81.82352 22099 ft 414 kts 145°
2026-05-03 23:27 26.25832 -81.80211 21703 ft 412 kts 145°
2026-05-03 23:28 26.23756 -81.78015 21316 ft 416 kts 136°
2026-05-03 23:28 26.22186 -81.75273 20932 ft 423 kts 122°
2026-05-03 23:28 26.20985 -81.72323 20558 ft 424 kts 117°
2026-05-03 23:28 26.19848 -81.69293 20180 ft 422 kts 118°
2026-05-03 23:29 26.18673 -81.66310 19810 ft 420 kts 120°
2026-05-03 23:29 26.17421 -81.63393 19437 ft 414 kts 121°
2026-05-03 23:29 26.16144 -81.60518 19079 ft 408 kts 121°
2026-05-03 23:29 26.14914 -81.57700 18713 ft 402 kts 121°
2026-05-03 23:30 26.13702 -81.54914 18356 ft 397 kts 121°
2026-05-03 23:30 26.12908 -81.53091 18075 ft 394 kts 121°
2026-05-03 23:30 26.11319 -81.49453 17524 ft 396 kts 120°
2026-05-03 23:30 26.10112 -81.46685 17121 ft 399 kts 120°
2026-05-03 23:31 26.08899 -81.43908 16724 ft 400 kts 120°
2026-05-03 23:31 26.07688 -81.41130 16334 ft 396 kts 120°
2026-05-03 23:31 26.06890 -81.39306 16076 ft 393 kts 120°
2026-05-03 23:31 26.05710 -81.36589 15688 ft 387 kts 120°
2026-05-03 23:32 26.04545 -81.33918 15301 ft 382 kts 120°
2026-05-03 23:32 26.03395 -81.31274 14924 ft 377 kts 120°
2026-05-03 23:32 26.02255 -81.28659 14541 ft 375 kts 120°
2026-05-03 23:32 26.01120 -81.26053 14179 ft 374 kts 120°
2026-05-03 23:33 25.99983 -81.23456 13827 ft 373 kts 119°
2026-05-03 23:33 25.98976 -81.21149 13448 ft 373 kts 119°
2026-05-03 23:33 25.97847 -81.18564 13071 ft 371 kts 119°
2026-05-03 23:33 25.96726 -81.15991 12666 ft 368 kts 119°
2026-05-03 23:34 25.95614 -81.13449 12267 ft 363 kts 119°
2026-05-03 23:34 25.94528 -81.10944 11866 ft 357 kts 119°
2026-05-03 23:34 25.93446 -81.08479 11479 ft 352 kts 119°
2026-05-03 23:34 25.92395 -81.06098 11130 ft 343 kts 119°
2026-05-03 23:35 25.91371 -81.03722 10777 ft 331 kts 118°
2026-05-03 23:35 25.90437 -81.01463 10460 ft 320 kts 117°
2026-05-03 23:35 25.89648 -80.99474 10192 ft 317 kts 116°
2026-05-03 23:35 25.88779 -80.97235 9855 ft 315 kts 116°
2026-05-03 23:36 25.87922 -80.95001 9449 ft 313 kts 116°
2026-05-03 23:36 25.87079 -80.92793 9061 ft 308 kts 115°
2026-05-03 23:36 25.86262 -80.90613 8727 ft 306 kts 115°
2026-05-03 23:36 25.85441 -80.88440 8440 ft 309 kts 115°
2026-05-03 23:37 25.84600 -80.86221 8145 ft 306 kts 115°
2026-05-03 23:37 25.83785 -80.84093 7858 ft 302 kts 115°
2026-05-03 23:37 25.82965 -80.81963 7558 ft 298 kts 116°
2026-05-03 23:37 25.82162 -80.79884 7262 ft 287 kts 116°
2026-05-03 23:38 25.81386 -80.77878 6957 ft 278 kts 115°
2026-05-03 23:38 25.80639 -80.75934 6669 ft 269 kts 115°
2026-05-03 23:38 25.79916 -80.74051 6391 ft 260 kts 115°
2026-05-03 23:38 25.79225 -80.72250 6157 ft 246 kts 116°
2026-05-03 23:39 25.78570 -80.70552 5986 ft 236 kts 116°
2026-05-03 23:39 25.77928 -80.68882 5765 ft 234 kts 116°
2026-05-03 23:39 25.77288 -80.67226 5516 ft 233 kts 116°
2026-05-03 23:39 25.76981 -80.65469 5240 ft 235 kts 89°
2026-05-03 23:40 25.77074 -80.63667 5023 ft 233 kts 85°
2026-05-03 23:40 25.77218 -80.61874 4787 ft 232 kts 85°
2026-05-03 23:40 25.77363 -80.60094 4551 ft 231 kts 84°
2026-05-03 23:40 25.77510 -80.58328 4314 ft 229 kts 85°
2026-05-03 23:41 25.77627 -80.56582 4136 ft 224 kts 86°
2026-05-03 23:41 25.77710 -80.54906 4079 ft 211 kts 88°
2026-05-03 23:41 25.77749 -80.53293 3802 ft 207 kts 89°
2026-05-03 23:41 25.77791 -80.51724 3525 ft 200 kts 88°
2026-05-03 23:42 25.77846 -80.50201 3284 ft 194 kts 87°
2026-05-03 23:42 25.77903 -80.48745 3040 ft 190 kts 87°
2026-05-03 23:42 25.77962 -80.47268 2803 ft 193 kts 87°
2026-05-03 23:42 25.78025 -80.45773 2542 ft 194 kts 87°
2026-05-03 23:43 25.78087 -80.44280 2274 ft 191 kts 87°
2026-05-03 23:43 25.78142 -80.42821 2036 ft 188 kts 87°
2026-05-03 23:43 25.78201 -80.41380 1797 ft 186 kts 86°
2026-05-03 23:43 25.78259 -80.40025 1555 ft 164 kts 86°
2026-05-03 23:44 25.78308 -80.38793 1357 ft 160 kts 86°
2026-05-03 23:44 25.78355 -80.37586 1126 ft 155 kts 86°
2026-05-03 23:44 25.78408 -80.36393 942 ft 156 kts 86°
2026-05-03 23:44 25.78460 -80.35196 761 ft 154 kts 86°
2026-05-03 23:45 25.78512 -80.34009 579 ft 154 kts 87°
2026-05-03 23:45 25.78550 -80.32845 399 ft 148 kts 86°
2026-05-03 23:45 25.78599 -80.31710 184 ft 144 kts 85°
2026-05-03 23:45 25.78651 -80.30596 20 ft 139 kts 85°
2026-05-03 23:46 25.78687 -80.29713 17 ft 87 kts 87°
2026-05-03 23:46 25.78710 -80.29173 17 ft 58 kts 87°
2026-05-03 23:46 25.78735 -80.28825 16 ft 30 kts 77°
2026-05-03 23:46 25.78822 -80.28675 15 ft 16 kts 39°
2026-05-03 23:47 25.78856 -80.28647 14 ft 0 kts 36°
2026-05-03 23:48 25.78866 -80.28638 14 ft 7 kts 43°
2026-05-03 23:48 25.78963 -80.28554 15 ft 22 kts 35°
2026-05-03 23:49 25.79091 -80.28458 15 ft 22 kts 32°
2026-05-03 23:49 25.79220 -80.28416 17 ft 19 kts 319°
2026-05-03 23:49 25.79294 -80.28538 16 ft 19 kts 316°
2026-05-03 23:49 25.79417 -80.28569 19 ft 19 kts 359°
2026-05-03 23:50 25.79545 -80.28574 17 ft 18 kts 354°
2026-05-03 23:50 25.79600 -80.28624 19 ft 15 kts 297°
2026-05-03 23:50 25.79654 -80.28782 19 ft 15 kts 305°
2026-05-03 23:50 25.79740 -80.28814 20 ft 13 kts 357°
2026-05-03 23:51 25.79843 -80.28819 19 ft 17 kts 357°
2026-05-03 23:51 25.79932 -80.28781 20 ft 13 kts 73°
2026-05-03 23:51 25.79938 -80.28694 19 ft 10 kts 87°
2026-05-03 23:51 25.79941 -80.28619 18 ft 9 kts 87°
2026-05-03 23:52 25.79944 -80.28565 17 ft 0 kts 87°
2026-05-03 23:52 25.79942 -80.28555 16 ft 3 kts 104°
2026-05-03 23:52 25.79910 -80.28522 16 ft 7 kts 185°
2026-05-03 23:53 25.79883 -80.28524 17 ft 1 kts 178°
2026-05-03 23:53 25.79877 -80.28524 19 ft 0 kts 177°